Location: Newark
(29.9790°N, 31.1340°E)
Time: 19:20:25
(UTC+00:00)

A-11 Canister half - Pass Details

Date: 28 January 2020
Orbit: 1525 x 1684 km, 47.3° (Epoch: 17 February)

Event Time Altitude Azimuth Distance (km) Brightness Sun altitude
Rises 19:25:14 0° 309° (NW) 4,730 12.1 -51.2°
Reaches altitude 10° 19:28:35 10° 317° (NW) 3,765 11.4 -51.9°
Enters shadow 19:31:25 21° 328° (NNW) 3,031 10.7 -52.5°
